Location: Faicchio
(41.2833°N, 14.4833°E)
Time: 07:13:42
(UTC+00:00)

MSX - Pass Details

Date: 15 June 2025
Orbit: 893 x 906 km, 99.0° (Epoch: 16 July)

Event Time Altitude Azimuth Distance (km) Brightness Sun altitude
Rises 01:23:25 0° 7° (N) 3,523 8.1 -17.6°
Reaches altitude 10° 01:25:54 10° 2° (N) 2,577 7.1 -17.4°
Maximum altitude 01:31:21 46° 291° (WNW) 1,181 4.3 -16.8°
Enters shadow 01:34:23 25° 232° (SW) 1,743 4.8 -16.4°
